Home   Weather   Niš   Past weeks

Flag for Serbia Past Weather in Niš, Serbia — Yesterday and Last 2 Weeks

Now
30 °F

Passing clouds.


Feels Like: 20 °F
Forecast: 25 / 27 °F
Wind: 14 mph from Northeast

Location: Nis Airport

Current Time: Jan 18, 2017 at 7:31:50 pm

Latest Report: Jan 18, 2017 at 7:00 pm


Visibility: N/A

Pressure: 30.33 "Hg

Humidity: 64%

Dew Point: 19 °F

Location of NišLocation

Past Weather in Niš — Graph

°F

Niš Temperature Yesterday

Maximum temperature yesterday: 34 °F (at 12:30 am)
Minimum temperature yesterday: 30 °F (at 7:00 am)
Average temperature yesterday: 32 °F

High & Low Weather Summary for the Past Weeks

 TemperatureHumidityPressure
High43 °F (Jan 14, 3:30 am)100% (Jan 4, 1:30 am)30.33 "Hg (Jan 4, 1:30 am)
Low-4 °F (Jan 8, 7:00 am)45% (Jan 8, 8:30 pm)29.50 "Hg (Jan 14, 12:30 am)
Average22 °F77%30.05 "Hg
* Reported Jan 3 6:00 pm — Jan 18 6:30 pm, Niš, Weather by CustomWeather, © 2017

Note: Actual official high and low records may vary slightly from our data, if they occured in-between our weather recording intervals... More about our weather records

Advertising

Niš Weather History for the Previous 24 Hours

Scroll right to see more
 ConditionsComfort  
Time TempWeatherWind HumidityBarometerVisibility
6:30 pm
Wed, Jan 18
30 °FPassing clouds.13 mph64%30.33 "HgN/A
6:00 pm30 °FPassing clouds.16 mph64%30.33 "HgN/A
5:30 pm30 °FPassing clouds.15 mph64%30.33 "HgN/A
5:00 pm30 °FPassing clouds.13 mph64%30.33 "HgN/A
4:30 pm30 °FPassing clouds.12 mph64%30.33 "HgN/A
4:00 pm30 °FScattered clouds.9 mph64%30.33 "HgN/A
3:30 pm32 °FPassing clouds.12 mph64%30.30 "HgN/A
3:00 pm32 °FPassing clouds.13 mph64%30.30 "HgN/A
2:30 pm32 °FPassing clouds.14 mph64%30.30 "HgN/A
2:00 pm34 °FPassing clouds.14 mph60%30.30 "HgN/A
1:30 pm34 °FPassing clouds.12 mph60%30.30 "HgN/A
1:00 pm34 °FPassing clouds.10 mph60%30.30 "HgN/A
12:30 pm34 °FPassing clouds.10 mph60%30.30 "HgN/A
12:00 pm34 °FScattered clouds.10 mph60%30.33 "HgN/A
11:30 am32 °FLight snow. Scattered clouds.9 mph64%30.33 "HgN/A
11:00 am32 °FLight snow. Scattered clouds.8 mph60%30.33 "HgN/A
10:30 am32 °FScattered clouds.7 mph60%30.33 "HgN/A
10:00 am32 °FLight snow. Scattered clouds.7 mph64%30.33 "HgN/A
9:30 am32 °FLight snow. Partly sunny.9 mph64%30.33 "HgN/A
9:00 am30 °FLight snow. Scattered clouds.6 mph64%30.33 "HgN/A
8:30 am30 °FLight snow. Scattered clouds.7 mph64%30.30 "HgN/A
8:00 am30 °FLight snow. Scattered clouds.8 mph64%30.30 "HgN/A
7:30 am30 °FScattered clouds.10 mph64%30.30 "HgN/A
7:00 am30 °FPassing clouds.16 mph64%30.27 "HgN/A
6:30 am30 °FPassing clouds.10 mph64%30.24 "HgN/A
6:00 am30 °FPassing clouds.9 mph64%30.27 "HgN/A
5:30 am30 °FPassing clouds.10 mph64%30.24 "HgN/A
5:00 am30 °FPassing clouds.13 mph64%30.24 "HgN/A
4:30 am30 °FPassing clouds.12 mph64%30.24 "HgN/A
4:00 am30 °FPassing clouds.12 mph64%30.24 "HgN/A
3:30 am30 °FPassing clouds.8 mph69%30.24 "HgN/A
3:00 am30 °FPassing clouds.9 mph64%30.24 "HgN/A
2:30 am30 °FPassing clouds.8 mph64%30.24 "HgN/A
2:00 am30 °FPassing clouds.6 mph64%30.24 "HgN/A
1:30 am30 °FLight snow. Passing clouds.10 mph64%30.24 "HgN/A
1:00 am30 °FLight snow. Passing clouds.12 mph69%30.21 "HgN/A
12:30 am30 °FLight snow. Passing clouds.16 mph69%30.21 "HgN/A
12:00 am30 °FLight snow. Passing clouds.16 mph69%30.21 "HgN/A
11:30 pm
Tue, Jan 17
30 °FLight snow. Passing clouds.16 mph64%30.21 "HgN/A
11:00 pm30 °FLight snow. Passing clouds.12 mph64%30.21 "HgN/A
10:30 pm30 °FPassing clouds.12 mph64%30.21 "HgN/A
10:00 pm30 °FPassing clouds.16 mph69%30.18 "HgN/A
9:30 pm30 °FPassing clouds.14 mph69%30.18 "HgN/A
9:00 pm30 °FPassing clouds.13 mph69%30.18 "HgN/A
8:30 pm32 °FPassing clouds.13 mph64%30.18 "HgN/A
8:00 pm32 °FPassing clouds.14 mph64%30.18 "HgN/A
7:30 pm32 °FPassing clouds.12 mph64%30.18 "HgN/A
7:00 pm32 °FPassing clouds.14 mph64%30.15 "HgN/A
Weather by CustomWeather, © 2017

See weather overviewHow to use our weather pages